map of AUY home
Great Circle Mapper logo
AUY -
Location
City:  Anelghowhat, Anatom (Aneityum, Kéamu) Island, Taféa, Vanuatu
Near (Alt.):Inyeug Island
ICAO / IATA:NVVA / AUY

Details
Latitude:20°14'57"S (-20.249166)
Longitude:169°46'17"E (169.771389)
Elevation:7 ft (2 m)
Variation:12.28°E (WMM2015 magnetic declination)
0.03° annual change
Runways:unknown number
Longest:2000 ft (610 m)

Time
Time Zone:UTC+11
Local Time:

Weather
TAF:NVVA 042220Z 0500/0524 09008KT 9999 BKN020 OVC100 INTER 0500/0506 5000 -TSRA BKN018 FEW022CB OVC095

Related Locations
Nearby:
Farthest:THI: 12300 mi / 19794 km
Tichitt, MR

Find:

   beyond  
but within

Other Information
Maps:
NOTAMs:
Links:
Sources:

  
flag of Vanuatu   

Sectional Chart

Flight Planning
at skyvector.com

Satellite Image

Google Maps Satellite View

 

Copyright © 2004-2015 Karl L. Swartz. All rights reserved.
The Great Circle Mapper name and logo are trademarks of the Great Circle Mapper.
All other trademarks mentioned herein belong to their respective owners.
Please see credits for attibutions and further copyright information.

  Follow gcmap on Facebook Follow gcmap on Twitter Follow gcmap on Google+

hCard Microformat

Geo Microformat